Location: Bergnerzell
(49.1816°N, 10.2565°E)
Time: 09:49:10
(UTC+00:00)

Meteor 1-21 - Pass Details

Date: 23 May 2024
Orbit: 845 x 886 km, 81.2° (Epoch: 15 June)

Event Time Altitude Azimuth Distance (km) Brightness Sun altitude
Exits shadow 00:04:42 34° 175° (S) 1,388 4.8 -19.3°
Maximum altitude 00:07:14 73° 98° (E) 908 4.3 -19.2°
Drops below altitude 10° 00:12:58 10° 15° (NNE) 2,533 7.9 -19.0°
Sets 00:15:26 0° 14° (NNE) 3,482 9.1 -18.9°
